Weather History for Spirit of St Louis, MO

Change the Weather History Date:

Tuesday, December 4, 2012

  Actual Average Record
Temperature  
Mean Temperature 50 °F -  
Max Temperature 66 °F 47 °F 73 °F (2001)
Min Temperature 34 °F 29 °F 12 °F (2006)
Degree Days  
Heating Degree Days 14    
Moisture  
Dew Point 44 °F    
Average Humidity 81    
Maximum Humidity 96    
Minimum Humidity 47    
Precipitation  
Precipitation 0.42 in - - ()
Sea Level Pressure  
Sea Level Pressure 30.13 in    
Wind  
Wind Speed 6 mph (NNW)    
Max Wind Speed 12 mph    
Max Gust Speed 23 mph    
Visibility 8 miles    
Events Rain    
Averages and records for this station are not official NWS values.
T = Trace of Precipitation, MM = Missing Value Source: NWS Daily Summary

Daily Weather History Graph

Daily Weather History Graph

Search for Another Location

Airport:

Trip Planner

Search our weather history database for the weather conditions in past years. The results will help you decide how hot, cold, wet, or windy it might be!

Date:

Astronomy

Dec. 04, 2012 Rise Set
Actual Time 7:04 AM CST 4:41 PM CST
Civil Twilight 6:35 AM CST 5:10 PM CST
Nautical Twilight 6:02 AM CST 5:43 PM CST
Astronomical Twilight 5:30 AM CST 6:15 PM CST
Moon 10:26 PM CST (12/4) 11:01 AM CST (12/4)
Length of Visible Light 10h 35m
Length of Day
9h 36m
Waning Gibbous, 69% of the Moon is Illuminated
Dec 4
Waning Gibbous
Dec 6
Last Quarter
Dec 13
New
Dec 19
First Quarter
Dec 28
Full

Hourly Weather History & Observations

Time (CST) Temp. Windchill Dew Point Humidity Pressure Visibility Wind Dir Wind Speed Gust Speed Precip Events Conditions
12:54 AM 66.0 °F - 55.9 °F 70% 29.93 in 10.0 mi West 10.4 mph - N/A   Mostly Cloudy
1:10 AM 64.4 °F - 57.2 °F 77% 29.95 in 7.0 mi West 6.9 mph 19.6 mph 0.01 in Rain Light Rain
1:30 AM 59.0 °F - 55.4 °F 88% 29.97 in 8.0 mi NW 11.5 mph 23.0 mph 0.02 in Rain Light Rain
1:49 AM 57.2 °F - 55.4 °F 94% 29.99 in 7.0 mi WNW 5.8 mph - 0.03 in Rain Light Rain
1:54 AM 57.9 °F - 55.0 °F 90% 29.98 in 6.0 mi WNW 5.8 mph - 0.03 in Rain Light Rain
2:34 AM 53.6 °F - 51.8 °F 94% 30.00 in 3.0 mi NNW 10.4 mph - N/A Rain Rain
2:51 AM 53.6 °F - 51.8 °F 94% 30.01 in 5.0 mi NNW 4.6 mph - 0.14 in Rain Rain
2:54 AM 54.0 °F - 52.0 °F 93% 30.00 in 5.0 mi NNW 5.8 mph - 0.14 in Rain Rain
3:54 AM 52.0 °F - 50.0 °F 93% 30.02 in 6.0 mi North 6.9 mph - 0.08 in Rain Rain
4:54 AM 52.0 °F - 48.0 °F 86% 30.04 in 6.0 mi North 8.1 mph - 0.04 in Rain Light Rain
5:03 AM 51.8 °F - 48.2 °F 88% 30.05 in 6.0 mi North 5.8 mph - 0.02 in Rain Rain
5:33 AM 51.8 °F - 48.2 °F 88% 30.07 in 5.0 mi Calm Calm - 0.08 in Rain Rain
5:54 AM 51.1 °F - 48.9 °F 92% 30.07 in 5.0 mi NNW 3.5 mph - 0.10 in Rain Light Rain
6:54 AM 51.1 °F - 48.0 °F 89% 30.10 in 10.0 mi North 4.6 mph - 0.03 in   Overcast
7:54 AM 51.1 °F - 46.0 °F 83% 30.13 in 10.0 mi NNW 5.8 mph - N/A   Mostly Cloudy
8:54 AM 51.1 °F - 44.1 °F 77% 30.16 in 10.0 mi NNW 8.1 mph - N/A   Overcast
9:54 AM 51.1 °F - 41.0 °F 68% 30.18 in 10.0 mi North 4.6 mph - N/A   Overcast
10:54 AM 53.1 °F - 41.0 °F 64% 30.18 in 10.0 mi North 4.6 mph - N/A   Mostly Cloudy
11:54 AM 54.0 °F - 41.0 °F 62% 30.17 in 10.0 mi North 5.8 mph - N/A   Mostly Cloudy
12:54 PM 55.0 °F - 37.9 °F 53% 30.17 in 10.0 mi North 6.9 mph - N/A   Mostly Cloudy
1:54 PM 55.9 °F - 37.0 °F 49% 30.18 in 10.0 mi NNW 5.8 mph - N/A   Scattered Clouds
2:54 PM 57.0 °F - 37.0 °F 47% 30.20 in 10.0 mi North 8.1 mph - N/A   Clear
3:54 PM 55.9 °F - 36.0 °F 47% 30.22 in 10.0 mi North 3.5 mph - N/A   Mostly Cloudy
4:54 PM 46.9 °F - 39.9 °F 77% 30.25 in 10.0 mi Calm Calm - N/A   Mostly Cloudy
5:54 PM 44.1 °F 42.5 °F 39.0 °F 82% 30.26 in 10.0 mi SSE 3.5 mph - N/A   Partly Cloudy
6:54 PM 39.9 °F - 37.9 °F 93% 30.27 in 10.0 mi Calm Calm - N/A   Clear
7:54 PM 37.9 °F - 36.0 °F 93% 30.29 in 9.0 mi Calm Calm - N/A   Clear
8:54 PM 37.0 °F 34.5 °F 35.1 °F 93% 30.30 in 10.0 mi WSW 3.5 mph - N/A   Clear
9:54 PM 35.1 °F 32.2 °F 34.0 °F 96% 30.30 in 10.0 mi WSW 3.5 mph - N/A   Clear
10:54 PM 36.0 °F - 33.1 °F 89% 30.30 in 10.0 mi Calm Calm - N/A   Clear
11:54 PM 34.0 °F - 32.0 °F 92% 30.32 in 6.0 mi Calm Calm - N/A   Clear